Location: Chemnitz
(49.5500°N, 11.5830°E)
Time: 23:44:08
(UTC+01:00)

OTV 5 (USA 277) - Visible Passes

Search period start: 21 January 2018 00:00
Search period end: 31 January 2018 00:00
Orbit: 404 x 417 km, 43.0° (Epoch: 07 September)

Date Brightness Start Highest point End Pass type
(mag) Time Alt. Az. Time Alt. Az. Time Alt. Az.
23 Jan ? 19:18:02 10° S 19:18:11 11° S 19:18:11 11° S visible
24 Jan ? 18:28:09 10° SSE 18:29:02 11° SSE 18:29:40 10° SE visible
25 Jan ? 19:12:06 10° SW 19:13:51 19° S 19:13:51 19° S visible
26 Jan ? 18:21:28 10° SSW 18:23:47 17° SSE 18:25:15 14° SE visible
26 Jan ? 19:57:38 10° WSW 19:58:01 12° SW 19:58:01 12° SW visible
27 Jan ? 19:06:44 10° SW 19:09:24 25° S 19:09:24 25° S visible
28 Jan ? 18:15:53 10° SW 18:18:39 24° S 18:20:46 14° ESE visible
28 Jan ? 19:52:37 10° WSW 19:53:32 15° SW 19:53:32 15° SW visible
29 Jan ? 19:01:37 10° WSW 19:04:30 26° S 19:04:55 25° S visible
30 Jan ? 18:10:39 10° WSW 18:13:33 27° S 18:16:20 11° ESE visible
30 Jan ? 19:47:50 10° WSW 19:49:06 16° SW 19:49:06 16° SW visible
